Regional Weather Roundup
Issued by NWS State College, PA

Home | Current Version | Previous Version | Text Only | Print | Product List | Glossary On
Versions: 1 2 3 4 5 6 7 8 9 10 11 12 13 14 15 16 17 18 19 20 21 22 23 24 25 26 27 28 29 30 31 32 33 34 35 36 37 38 39 40 41 42 43 44 45 46 47 48 49 50
000
ASUS41 KCTP 201410
RWRCTP

REGIONAL WEATHER ROUNDUP
NATIONAL WEATHER SERVICE STATE COLLEGE PA
1000 AM EDT SAT SEP 20 2014

Note: "fair" indicates few or no clouds below 12,000 feet with no
significant weather and/or obstructions to visibility.

* = STATION THAT DOES NOT REPORT PRECIPITATION /E.G. RAIN...SNOW...ETC/
    THUNDER OR FOG.

PAZ002>004-007>009-013>016-020>023-029>032-201500-
WESTERN PENNSYLVANIA

CITY           SKY/WX    TMP DP  RH WIND       PRES   REMARKS
ERIE           MOSUNNY   68  57  68 S14G22    30.06F
MEADVILLE      PTSUNNY   64  56  75 S9G20     30.11F
FRANKLIN*      SUNNY     64  55  72 SW13G20   30.15F
NEW CASTLE     NOT AVBL
BEAVER COUNTY  MOSUNNY   66  57  72 S12       30.14F
BUTLER*        SUNNY     66  55  68 S14       30.17S
PITTSBURGH INT PTSUNNY   68  57  68 SW10      30.14F
PITTSBURGH     MOSUNNY   68  55  63 S13       30.15S
INDIANA*       MOSUNNY   68  57  68 S8G15     30.21F
LATROBE        MOSUNNY   70  57  64 S12       30.18S
WASHINGTON CO* MOSUNNY   70  57  64 S8        30.16F
$$

PAZ004>006-010>012-017>019-024>028-033>037-041-042-045-046-049>053-201500-
CENTRAL PENNSYLVANIA

CITY           SKY/WX    TMP DP  RH WIND       PRES   REMARKS
BRADFORD       CLOUDY    62  54  74 S9G21     30.16F
DUBOIS         CLOUDY    62  56  80 SW12      30.17S
CLEARFIELD     CLOUDY    64  58  80 VRB5      30.19F
JOHNSTOWN      PTSUNNY   62  55  77 S8        30.22S
ALTOONA        CLOUDY    64  58  80 S9        30.23S
STATE COLLEGE  CLOUDY    64  57  77 SW9       30.22S
WILLIAMSPORT   CLOUDY    65  56  72 S9G18     30.21S
SELINSGROVE    CLOUDY    65  58  78 S8        30.25S
FT INDIANTOWN  CLOUDY    62  61  98 NE5       30.27F
CAPITAL CITY   CLOUDY    62  58  86 E6        30.26F FOG
HARRISBURG     CLOUDY    64  58  80 SE7       30.26S FOG
YORK           PTSUNNY   69  61  75 VRB5      30.26S
$$

PAZ038>040-043-044-047-048-054-055-060>062-067>071-201500-
EASTERN PENNSYLVANIA

CITY           SKY/WX    TMP DP  RH WIND       PRES   REMARKS
SCRANTON       CLOUDY    63  55  75 S6        30.25S
MOUNT POCONO   CLOUDY    57  54  89 S9        30.28F FOG
ALLENTOWN      PTSUNNY   66  56  70 VRB5      30.28S
QUAKERTOWN*    PTSUNNY   66  57  72 S7        30.29S
READING        MOSUNNY   66  57  72 SE8       30.27S
LANCASTER      PTSUNNY   67  59  75 S9        30.27S
COATESVILLE    MOSUNNY   64  59  82 SE8       30.29S
POTTSTOWN      PTSUNNY   65  57  75 VRB3      30.29F
BLUE BELL      PTSUNNY   68  59  73 SE3       30.27F
DOYLESTOWN     PTSUNNY   65  58  78 S7        30.28F
WILLOW GROVE   NOT AVBL
NORTH PHILA    SUNNY     69  57  65 SE7       30.30S
PHILADELPHIA   MOSUNNY   69  59  70 E5        30.28F
$$


USA.gov is the U.S. government's official web portal to all federal, state and local government web resources and services.